Regional Weather Roundup
Issued by NWS

Home | Current Version | Previous Version | Graphics & Text | Print | Product List | Glossary On
Versions: 1 2 3 4 5 6 7 8 9 10 11 12 13 14 15 16 17 18 19 20 21 22 23 24 25 26 27 28 29 30 31 32 33 34 35 36 37 38 39 40 41 42 43 44 45 46 47 48 49 50
000
ASUS45 KABQ 061001
RWRNM
WEATHER ROUNDUP FOR NEW MEXICO
NATIONAL WEATHER SERVICE ALBUQUERQUE NM
400 AM MDT WED MAY 06 2015

NOTE: "FAIR" MEANS FEW OR NO CLOUDS BELOW 12,000 FEET AGL WITH NO
       SIGNIFICANT WEATHER OR OBSTRUCTIONS TO VISION.

      THIS PRODUCT IS RELEASED AS TWO VERSIONS.  ONE VERSION NEAR
      THE TOP OF THE HOUR CONTAINING PRELIMINARY DATA FROM ALBUQUERQUE
      AND OTHER STATIONS.  A FINAL VERSION WITH ADDITIONAL DATA IS
      ISSUED ABOUT 10 MINUTES AFTER THE HOUR.

NMZ501-503-504-510>518-061100-
NORTHWEST PLATEAU/NORTHCENTRAL MOUNTAINS

CITY           SKY/WX    TMP DP  RH WIND       PRES   REMARKS
FARMINGTON     CLOUDY    48  47  96 W5        29.89S
SANTA FE       CLOUDY    47  43  86 W9        29.92F
TAOS           CLOUDY    45  37  76 SW9       29.93S

$$
NMZ402-403-502-505>509-061100-
WESTCENTRAL MOUNTAINS/SOUTHWEST MOUNTAINS

CITY           SKY/WX    TMP DP  RH WIND       PRES   REMARKS
GALLUP         CLOUDY    47  44  90 SW13      29.98S
SILVER CITY      N/A     46  39  76 NW10      30.02S

$$
NMZ407-409-411-412-061100-
SOUTHERN DESERTS

CITY           SKY/WX    TMP DP  RH WIND       PRES   REMARKS
DEMING         CLEAR     50  39  66 W8        29.97S
HOLLOMAN AFB   PTCLDY    58  39  48 CALM      29.91S
ALAMOGORDO     PTCLDY    59  36  41 CALM      29.93S
T OR C         CLEAR     53  38  56 W7        29.94F

$$
NMZ519>523-061100-
CENTRAL VALLEYS/CENTRAL HIGHLANDS

CITY           SKY/WX    TMP DP  RH WIND       PRES   REMARKS
ALBUQUERQUE    MOCLDY    51  46  83 CALM      29.94S
DOUBLE EAGLE   CLOUDY    49  45  84 SW6       29.96R
CLINES CORNERS CLEAR     44  39  82 W21G28    29.92R
BELEN          FAIR      51  42  71 W9        29.94S
SOCORRO        NOT AVBL

$$
NMZ524>526-539-540-061100-
SOUTHCENTRAL MOUNTAINS

CITY           SKY/WX    TMP DP  RH WIND       PRES   REMARKS
RUIDOSO        NOT AVBL

$$
NMZ527>531-061100-
NORTHEAST HIGHLANDS/NORTHEAST PLAINS

CITY           SKY/WX    TMP DP  RH WIND       PRES   REMARKS
LAS VEGAS      PTCLDY    46  38  73 SW10      29.87S
RATON          CLOUDY    44  42  93 N5        29.79F
CLAYTON        PTCLDY    47  43  86 SW12      29.74F

$$
NMZ532>537-061100-
EASTCENTRAL PLAINS

CITY           SKY/WX    TMP DP  RH WIND       PRES   REMARKS
TUCUMCARI      CLEAR     52  45  77 SW10      29.78S
CANNON AFB     NOT AVBL
CLOVIS AIRPORT CLEAR     52  46  82 SW9       29.85S

$$
NMZ028-029-538-061100-
SOUTHEAST PLAINS

CITY           SKY/WX    TMP DP  RH WIND       PRES   REMARKS
ROSWELL        CLEAR     51  46  83 S3        29.87R
ARTESIA        CLEAR     54  45  71 SW12      29.87F
CARLSBAD       CLEAR     53  45  74 SW7       29.86S
HOBBS          CLOUDY    61  61 100 S15       29.90R FOG


$$


USA.gov is the U.S. government's official web portal to all federal, state and local government web resources and services.